GW5800 Weather Reports


Display with metric or nautical units.
time (UTC)temp
F
wind
direction
speed
MPH
gust
MPH
rain 1hr
in
rain 24hr
in
rain mn
in
humidity
%
barometer
mb
20260506005159 52 40 2.0 2.0 0.00 0.24 0.24 96 1008.7
20260506004655 53 61 2.0 2.0 0.05 0.24 0.24 96 1008.7
20260506004152 53 62 1.0 2.0 0.09 0.24 0.24 96 1008.9
20260506003648 53 62 2.0 3.0 0.12 0.24 0.24 95 1008.6
20260506003145 53 62 2.0 3.0 0.14 0.23 0.23 95 1008.7
20260506002641 53 56 2.0 3.0 0.19 0.22 0.22 95 1008.8
20260506002137 53 64 2.0 3.0 0.17 0.20 0.20 95 1008.9
20260506001633 53 63 2.0 2.0 0.17 0.18 0.18 94 1008.8
20260506001131 53 84 3.0 3.0 0.14 0.17 0.17 94 1008.8
20260506000628 53 116 2.0 4.0 0.21 0.16 0.16 93 1008.9
20260506000125 53 120 3.0 4.0 0.40 0.15 0.15 93 1009.1
20260505235623 53 40 4.0 4.0 0.54 0.12 0.12 92 1009.2
20260505235120 54 100 3.0 5.0 0.35 0.08 0.08 92 1008.8
20260505234617 55 305 2.0 4.0 0.17 0.03 0.03 91 1009.4
20260505234113 56 333 3.0 5.0 0.12 0.02 0.02 90 1008.5
20260505233611 57 10 3.0 4.0 0.00 0.00 0.00 90 1008.2
20260505233108 58 0 0.0 4.0 0.00 0.00 0.00 91 1007.9
20260505232606 58 31 2.0 3.0 0.00 0.00 0.00 91 1008.0
20260505232103 58 35 1.0 2.0 0.00 0.00 0.00 90 1008.1
20260505231600 59 56 2.0 2.0 0.00 0.00 0.00 90 1008.0
20260505231058 59 42 1.0 2.0 0.00 0.00 0.00 90 1007.9
20260505230556 59 54 1.0 2.0 0.00 0.00 0.00 89 1008.0
20260505230052 59 32 0.0 2.0 0.00 0.00 0.00 88 1008.0
20260505225549 59 48 2.0 3.0 0.00 0.00 0.00 87 1008.0
20260505225045 59 63 2.0 3.0 0.00 0.00 0.00 87 1008.0
20260505224542 60 122 1.0 2.0 0.00 0.00 0.00 87 1008.2
20260505224039 60 209 0.0 2.0 0.02 0.00 0.00 86 1008.3
20260505223536 60 15 1.0 2.0 0.02 0.00 0.00 87 1008.3
20260505223032 60 51 0.0 2.0 0.00 0.00 0.00 87 1008.5
20260505222529 60 47 2.0 3.0 0.00 0.00 0.00 87 1008.5
20260505222025 60 32 2.0 2.0 0.00 0.00 0.00 87 1008.6
20260505221523 60 13 0.0 3.0 0.00 0.00 0.00 86 1008.4
20260505221019 60 44 0.0 2.0 0.00 0.00 0.00 86 1008.4
20260505220516 60 51 2.0 3.0 0.00 0.00 0.00 87 1008.6
20260505220014 60 13 2.0 4.0 0.00 0.00 0.00 86 1008.8
20260505215512 61 0 1.0 3.0 0.00 0.00 0.00 85 1008.5
20260505215009 61 39 2.0 2.0 0.00 0.00 0.00 85 1008.4
20260505214508 61 36 2.0 3.0 0.00 0.00 0.00 83 1008.3
20260505214004 62 13 2.0 3.0 0.00 0.00 0.00 81 1007.9
20260505213502 62 336 2.0 4.0 0.00 0.00 0.00 80 1007.9
20260505212958 63 38 3.0 3.0 0.00 0.00 0.00 78 1007.7
20260505212454 63 49 3.0 3.0 0.00 0.00 0.00 78 1008.1
20260505211951 64 353 2.0 2.0 0.00 0.00 0.00 76 1007.7
20260505211449 64 212 0.0 3.0 0.00 0.00 0.00 74 1008.1
20260505210945 64 275 2.0 7.0 0.00 0.00 0.00 74 1008.1
20260505210442 64 173 2.0 3.0 0.00 0.00 0.00 74 1007.8
20260505205939 65 153 5.0 5.0 0.00 0.00 0.00 74 1007.7
20260505205437 65 164 3.0 4.0 0.00 0.00 0.00 70 1007.9
20260505204933 66 266 0.0 2.0 0.00 0.00 0.00 68 1007.8
20260505204432 66 217 0.0 3.0 0.00 0.00 0.00 68 1007.5
20260505203928 66 212 0.0 1.0 0.00 0.00 0.00 67 1007.5
20260505203425 66 213 1.0 3.0 0.00 0.00 0.00 67 1007.5
20260505202921 66 243 2.0 2.0 0.00 0.00 0.00 67 1007.4
20260505202418 66 208 1.0 2.0 0.00 0.00 0.00 68 1007.4
20260505201914 66 274 1.0 3.0 0.00 0.00 0.00 67 1007.7
20260505201411 66 266 1.0 2.0 0.00 0.00 0.00 67 1008.1
20260505200910 66 215 3.0 3.0 0.00 0.00 0.00 67 1007.8
20260505200406 66 269 0.0 2.0 0.00 0.00 0.00 65 1007.9
20260505195902 66 264 1.0 3.0 0.00 0.00 0.00 66 1007.9
20260505195359 66 149 0.0 2.0 0.00 0.00 0.00 66 1008.1
20260505194856 66 231 0.0 0.0 0.00 0.00 0.00 67 1007.7
20260505194354 66 236 1.0 3.0 0.00 0.00 0.00 66 1008.0
20260505193854 66 155 1.0 2.0 0.00 0.00 0.00 67 1007.8
20260505193352 66 262 1.0 2.0 0.00 0.00 0.00 68 1008.1
20260505192849 65 241 1.0 2.0 0.00 0.00 0.00 69 1008.0
20260505192348 65 232 2.0 2.0 0.00 0.00 0.00 70 1008.4
20260505191845 64 248 3.0 4.0 0.00 0.00 0.00 68 1008.4
20260505191344 64 137 0.0 3.0 0.00 0.00 0.00 68 1008.6
20260505190840 64 224 4.0 5.0 0.00 0.00 0.00 69 1008.5
20260505190335 66 264 6.0 10.0 0.00 0.00 0.00 65 1008.7
20260505185831 66 245 3.0 6.0 0.00 0.00 0.00 63 1008.6
20260505185328 66 237 1.0 5.0 0.00 0.00 0.00 63 1008.6
20260505184824 67 227 2.0 3.0 0.00 0.00 0.00 62 1008.4
20260505184321 67 264 0.0 4.0 0.00 0.00 0.00 62 1008.4
20260505183818 68 218 3.0 4.0 0.00 0.00 0.00 61 1008.4
20260505183315 68 233 3.0 7.0 0.00 0.00 0.00 60 1008.3
20260505182812 68 260 2.0 6.0 0.00 0.00 0.00 60 1008.2
20260505182308 68 279 3.0 9.0 0.00 0.00 0.00 60 1008.3
20260505181805 68 210 2.0 5.0 0.00 0.00 0.00 61 1008.1
20260505181303 68 239 2.0 3.0 0.00 0.00 0.00 60 1008.3
20260505180759 68 204 2.0 2.0 0.00 0.00 0.00 61 1008.1
20260505180255 68 250 4.0 6.0 0.00 0.00 0.00 61 1008.2
20260505175752 68 263 2.0 6.0 0.00 0.00 0.00 61 1008.1
20260505175248 68 229 3.0 7.0 0.00 0.00 0.00 61 1008.2
20260505174745 68 232 3.0 3.0 0.00 0.00 0.00 62 1008.1
20260505174242 68 233 2.0 4.0 0.00 0.00 0.00 60 1008.0
20260505173738 68 191 1.0 11.0 0.00 0.00 0.00 62 1007.9
20260505173235 68 245 4.0 4.0 0.00 0.00 0.00 60 1007.8
20260505172732 68 280 4.0 4.0 0.00 0.00 0.00 59 1007.9
20260505172229 68 237 2.0 5.0 0.00 0.00 0.00 59 1007.9
20260505171729 69 258 1.0 4.0 0.00 0.00 0.00 60 1007.8
20260505171226 69 214 2.0 5.0 0.00 0.00 0.00 60 1007.9
20260505170723 69 229 4.0 5.0 0.00 0.00 0.00 60 1007.7
20260505170220 69 223 4.0 10.0 0.00 0.00 0.00 56 1007.8
20260505165715 69 173 4.0 11.0 0.00 0.00 0.00 58 1007.8
20260505165211 69 264 2.0 5.0 0.00 0.00 0.00 58 1007.8
20260505164707 69 274 3.0 10.0 0.00 0.00 0.00 56 1007.9
20260505164204 70 239 2.0 4.0 0.00 0.00 0.00 57 1007.7
20260505163702 70 281 4.0 5.0 0.00 0.00 0.00 56 1007.8
20260505163201 71 182 2.0 6.0 0.00 0.00 0.00 56 1007.7
20260505162658 71 256 4.0 11.0 0.00 0.00 0.00 56 1007.8
20260505162155 71 258 4.0 6.0 0.00 0.00 0.00 56 1007.2
20260505161651 71 246 5.0 8.0 0.00 0.00 0.00 55 1007.4
20260505161149 71 138 1.0 5.0 0.00 0.00 0.00 54 1007.5
20260505160647 71 281 4.0 6.0 0.00 0.00 0.00 57 1007.4
20260505160144 71 203 4.0 9.0 0.00 0.00 0.00 55 1007.2
20260505153123 68 254 4.0 4.0 0.00 0.00 0.00 62 1007.9
20260505152620 68 226 5.0 5.0 0.00 0.00 0.00 61 1007.8
20260505152115 68 228 1.0 11.0 0.00 0.00 0.00 60 1007.8
20260505151611 67 59 0.0 9.0 0.00 0.00 0.00 62 1007.8
20260505151109 67 307 7.0 9.0 0.00 0.00 0.00 60 1008.0
20260505150605 68 329 4.0 10.0 0.00 0.00 0.00 59 1007.9
20260505140530 65 177 6.0 8.0 0.00 0.00 0.00 67 1007.2
20260505124943 61 243 0.0 6.0 0.00 0.00 0.00 75 1007.1
20260505124440 61 200 2.0 11.0 0.00 0.00 0.00 75 1006.8
20260505123936 61 150 4.0 5.0 0.00 0.00 0.00 74 1006.7
20260505123433 61 145 0.0 3.0 0.00 0.00 0.00 74 1006.6
20260505122929 61 132 4.0 5.0 0.00 0.00 0.00 74 1006.5
20260505122427 62 162 5.0 5.0 0.00 0.00 0.00 74 1006.6
20260505121923 62 137 1.0 3.0 0.00 0.00 0.00 72 1006.7
20260505121420 62 175 3.0 9.0 0.00 0.00 0.00 70 1006.8
20260505120916 63 173 3.0 6.0 0.00 0.00 0.00 69 1007.0
20260505120413 63 176 2.0 12.0 0.00 0.00 0.00 68 1006.8
20260505115912 63 239 3.0 4.0 0.00 0.00 0.00 67 1006.7
20260505115408 63 157 2.0 9.0 0.00 0.00 0.00 67 1006.7
20260505114907 63 157 2.0 9.0 0.00 0.00 0.00 66 1006.7
20260505114402 63 195 2.0 8.0 0.00 0.00 0.00 66 1006.8
20260505113859 63 181 3.0 3.0 0.00 0.00 0.00 68 1006.8
20260505113356 63 182 2.0 6.0 0.00 0.00 0.00 67 1006.8
20260505112851 63 158 0.0 4.0 0.00 0.00 0.00 67 1006.5
20260505112349 63 122 1.0 4.0 0.00 0.00 0.00 66 1006.6
20260505111845 63 176 3.0 7.0 0.00 0.00 0.00 66 1006.4
20260505111340 63 187 4.0 6.0 0.00 0.00 0.00 66 1006.3
20260505110836 63 190 2.0 5.0 0.00 0.00 0.00 65 1006.4
20260505110334 63 180 2.0 2.0 0.00 0.00 0.00 65 1006.1
20260505101809 64 161 5.0 6.0 0.00 0.00 0.00 65 1005.6
20260505101304 64 177 4.0 5.0 0.00 0.00 0.00 65 1005.4
20260505100800 64 359 2.0 9.0 0.00 0.00 0.00 64 1005.5
20260505100257 64 288 0.0 4.0 0.00 0.00 0.00 64 1005.5
20260505095753 64 147 4.0 8.0 0.00 0.00 0.00 63 1005.5
20260505095251 64 172 2.0 6.0 0.00 0.00 0.00 63 1005.3
20260505094746 64 120 4.0 9.0 0.00 0.00 0.00 64 1005.2
20260505094243 64 175 3.0 5.0 0.00 0.00 0.00 64 1005.2
20260505093739 64 176 3.0 7.0 0.00 0.00 0.00 63 1005.3
20260505093237 64 146 3.0 5.0 0.00 0.00 0.00 64 1005.1
20260505092733 64 138 4.0 6.0 0.00 0.00 0.00 63 1005.1
20260505092232 64 190 2.0 4.0 0.00 0.00 0.00 64 1005.1
20260505091729 64 203 2.0 3.0 0.00 0.00 0.00 64 1005.1
20260505091227 64 156 4.0 4.0 0.00 0.00 0.00 64 1005.1
20260505090724 64 233 1.0 5.0 0.00 0.00 0.00 63 1005.2
20260505090223 64 157 3.0 5.0 0.00 0.00 0.00 63 1005.1
20260505085719 64 192 2.0 7.0 0.00 0.00 0.00 64 1005.2
20260505085217 64 163 3.0 5.0 0.00 0.00 0.00 64 1005.1
20260505084715 65 223 4.0 4.0 0.00 0.00 0.00 64 1005.1
20260505084214 65 145 2.0 8.0 0.00 0.00 0.00 64 1004.8
20260505083710 65 180 4.0 9.0 0.00 0.00 0.00 64 1005.0
20260505083207 65 93 3.0 4.0 0.00 0.00 0.00 63 1004.9
20260505082703 64 210 2.0 5.0 0.00 0.00 0.00 64 1004.9
20260505082200 64 150 2.0 4.0 0.00 0.00 0.00 64 1005.0
20260505081655 64 156 3.0 3.0 0.00 0.00 0.00 64 1004.6
20260505081153 64 218 0.0 9.0 0.00 0.00 0.00 64 1004.8
20260505080650 64 257 2.0 4.0 0.00 0.00 0.00 64 1004.6
20260505080146 64 139 4.0 9.0 0.00 0.00 0.00 64 1004.8
20260505075642 64 128 2.0 3.0 0.00 0.00 0.00 65 1004.5
20260505075139 64 191 1.0 5.0 0.00 0.00 0.00 65 1004.5
20260505074636 64 118 2.0 3.0 0.00 0.00 0.00 65 1004.6
20260505074133 63 222 2.0 3.0 0.00 0.00 0.00 66 1004.5
20260505073631 63 187 4.0 5.0 0.00 0.00 0.00 66 1004.4
20260505073129 63 204 2.0 5.0 0.00 0.00 0.00 66 1004.4
20260505072624 63 179 1.0 5.0 0.00 0.00 0.00 66 1004.5
20260505072121 64 189 2.0 5.0 0.00 0.00 0.00 66 1004.5
20260505071617 63 184 6.0 9.0 0.00 0.00 0.00 65 1004.5
20260505071114 63 301 1.0 2.0 0.00 0.00 0.00 66 1004.3
20260505070611 63 223 1.0 5.0 0.00 0.00 0.00 66 1004.4
20260505070108 63 152 3.0 5.0 0.00 0.00 0.00 67 1004.3
20260505065603 63 132 3.0 9.0 0.00 0.00 0.00 66 1004.5
20260505065100 63 172 1.0 4.0 0.00 0.00 0.00 66 1004.7
20260505064557 63 171 3.0 4.0 0.00 0.00 0.00 67 1004.5
20260505064056 63 212 0.0 4.0 0.00 0.00 0.00 67 1004.6
20260505063553 63 131 3.0 4.0 0.00 0.00 0.00 66 1004.5
20260505063049 63 176 1.0 4.0 0.00 0.00 0.00 67 1004.8
20260505062545 64 115 2.0 3.0 0.00 0.00 0.00 66 1004.9
20260505062042 64 149 3.0 3.0 0.00 0.00 0.00 66 1004.9
20260505061540 64 152 2.0 5.0 0.00 0.00 0.00 65 1004.9
20260505061038 64 181 2.0 7.0 0.00 0.00 0.00 66 1005.0
20260505060535 64 168 0.0 4.0 0.00 0.00 0.00 66 1005.1
20260505060032 64 153 3.0 4.0 0.00 0.00 0.00 66 1005.1
20260505055527 63 181 2.0 3.0 0.00 0.00 0.00 67 1005.3
20260505055024 63 128 3.0 5.0 0.00 0.00 0.00 67 1005.4
20260505054521 63 172 3.0 4.0 0.00 0.00 0.00 67 1005.5
20260505054019 63 174 1.0 3.0 0.00 0.00 0.00 68 1005.4
20260505053516 63 163 2.0 2.0 0.00 0.00 0.00 68 1005.5
20260505053013 63 182 3.0 6.0 0.00 0.00 0.00 68 1005.5
20260505052510 63 156 2.0 3.0 0.00 0.00 0.00 68 1005.5
20260505052007 63 160 2.0 3.0 0.00 0.00 0.00 68 1005.7
20260505051503 63 178 4.0 4.0 0.00 0.00 0.00 68 1005.6
20260505051002 63 165 3.0 3.0 0.00 0.00 0.00 67 1005.5
20260505050500 63 179 2.0 4.0 0.00 0.00 0.00 68 1005.6
20260505041427 63 230 2.0 4.0 0.00 0.00 0.00 64 1005.8
20260505040924 64 204 2.0 6.0 0.00 0.00 0.00 64 1005.9
20260505040422 64 123 6.0 8.0 0.00 0.00 0.00 63 1005.8
20260505035918 64 165 4.0 5.0 0.00 0.00 0.00 63 1005.9
20260505035415 64 146 4.0 4.0 0.00 0.00 0.00 63 1006.0
20260505034912 64 181 1.0 4.0 0.00 0.00 0.00 62 1005.9
20260505034408 64 141 3.0 4.0 0.00 0.00 0.00 62 1005.9
20260505033906 64 180 2.0 3.0 0.00 0.00 0.00 63 1006.1
20260505033402 64 154 3.0 4.0 0.00 0.00 0.00 62 1005.9
20260505032901 64 154 7.0 9.0 0.00 0.00 0.00 62 1005.9
20260505032357 64 182 2.0 4.0 0.00 0.00 0.00 63 1005.9
20260505031853 64 183 2.0 7.0 0.00 0.00 0.00 62 1005.8
20260505031350 64 129 2.0 3.0 0.00 0.00 0.00 62 1005.9
20260505030848 64 125 3.0 4.0 0.00 0.00 0.00 61 1006.0
20260505030344 64 151 6.0 6.0 0.00 0.00 0.00 61 1005.8
20260505025839 65 160 3.0 5.0 0.00 0.00 0.00 61 1005.9
20260505025337 64 184 2.0 6.0 0.00 0.00 0.00 62 1006.1
20260505024836 65 148 4.0 4.0 0.00 0.00 0.00 61 1006.0
20260505024333 65 187 3.0 4.0 0.00 0.00 0.00 61 1006.1
20260505023830 65 127 1.0 3.0 0.00 0.00 0.00 61 1006.3
20260505023326 65 149 3.0 5.0 0.00 0.00 0.00 61 1006.2
20260505022824 65 176 2.0 4.0 0.00 0.00 0.00 60 1006.3
20260505022321 65 140 2.0 4.0 0.00 0.00 0.00 60 1006.5
20260505021818 65 179 2.0 4.0 0.00 0.00 0.00 60 1006.3
20260505021315 65 123 4.0 5.0 0.00 0.00 0.00 60 1006.3
20260505020810 65 185 0.0 2.0 0.00 0.00 0.00 60 1006.4
20260505020306 66 153 7.0 9.0 0.00 0.00 0.00 59 1006.4
20260505015803 66 180 2.0 6.0 0.00 0.00 0.00 58 1006.5
20260505015300 66 271 2.0 4.0 0.00 0.00 0.00 57 1006.1
20260505014758 66 124 8.0 9.0 0.00 0.00 0.00 58 1006.1
20260505014255 66 175 4.0 4.0 0.00 0.00 0.00 58 1006.0
20260505013751 66 153 3.0 3.0 0.00 0.00 0.00 58 1006.3
20260505013248 66 203 3.0 4.0 0.00 0.00 0.00 56 1005.9
20260505012746 67 217 0.0 7.0 0.00 0.00 0.00 56 1005.9
20260505012243 67 173 2.0 6.0 0.00 0.00 0.00 56 1005.8
20260505011739 67 184 2.0 4.0 0.00 0.00 0.00 55 1005.8
20260505011237 67 178 2.0 6.0 0.00 0.00 0.00 56 1005.7
20260505010732 67 184 3.0 4.0 0.00 0.00 0.00 57 1005.6
20260505010228 67 186 3.0 4.0 0.00 0.00 0.00 56 1005.4
20260505005725 67 191 2.0 4.0 0.00 0.00 0.00 56 1005.5